Timestamp,Temp,Chill,HIndex,Humid,Dewpt,Wind,HiWind,WindDir,Rain,RainRate,Barom,Solar,ET,UV,InsideTemp,InsideHumid
2016-05-13 00:00:00,49.1,47.1608900861987,49.1,86,45.0951283470103,5,16,22.5,0,0,29.615,0,0.001,0,60.3,58
2016-05-13 00:05:00,49.1,47.1608900861987,49.1,86,45.0951283470103,5,13,0,0,0,29.617,0,0,0,60.2,58
2016-05-13 00:10:00,49.1,49.1,49.1,86,45.0951283470103,3,9,315,0,0,29.615,0,0,0,60.3,58
2016-05-13 00:15:00,49.2,46.7147571181911,49.2,86,45.1933361451725,6,12,0,0,0,29.615,0,0,0,60.3,58
2016-05-13 00:20:00,49.1,47.1608900861987,49.1,86,45.0951283470103,5,11,337.5,0,0,29.616,0,0,0,60.3,58
2016-05-13 00:25:00,49.1,47.8306031808494,49.1,86,45.0951283470103,4,11,45,0,0,29.616,0,0,0,60,58
2016-05-13 00:30:00,49.1,49.1,49.1,86,45.0951283470103,3,8,337.5,0,0,29.614,0,0,0,59.9,58
2016-05-13 00:35:00,49.1,49.1,49.1,86,45.0951283470103,2,9,247.5,0,0,29.615,0,0,0,59.9,58
2016-05-13 00:40:00,49.1,47.1608900861987,49.1,86,45.0951283470103,5,10,45,0,0,29.614,0,0,0,59.7,58
2016-05-13 00:45:00,49.1,47.8306031808494,49.1,86,45.0951283470103,4,11,270,0,0,29.614,0,0,0,59.9,58
2016-05-13 00:50:00,49,44.7973777935334,49,86,44.9969201515435,10,22,22.5,0,0,29.615,0,0,0,59.9,59
2016-05-13 00:55:00,49,45.9842239525409,49,86,44.9969201515435,7,14,315,0,0,29.617,0,0,0,59.9,59
2016-05-13 01:00:00,49,46.4765711246873,49,87,45.3012115584715,6,12,0,0,0,29.619,0,0.001,0,60.2,59
2016-05-13 01:05:00,49,45.9842239525409,49,87,45.3012115584715,7,14,0,0,0,29.621,0,0,0,60.2,58
2016-05-13 01:10:00,49,45.5478068788481,49,87,45.3012115584715,8,16,45,0,0,29.621,0,0,0,60.2,58
2016-05-13 01:15:00,48.9,45.8637090445166,48.9,87,45.202867361561,7,14,337.5,0,0,29.619,0,0,0,60,59
2016-05-13 01:20:00,48.9,46.3574781279355,48.9,87,45.202867361561,6,13,45,0,0,29.621,0,0,0,59.9,59
2016-05-13 01:25:00,48.9,45.4260315871116,48.9,87,45.202867361561,8,16,337.5,0,0,29.621,0,0,0,59.9,59
2016-05-13 01:30:00,48.9,48.9,48.9,87,45.202867361561,3,12,315,0,0,29.618,0,0,0,59.9,59
2016-05-13 01:35:00,48.9,46.3574781279355,48.9,87,45.202867361561,6,13,0,0,0,29.622,0,0,0,59.7,59
2016-05-13 01:40:00,48.9,46.3574781279355,48.9,87,45.202867361561,6,12,292.5,0,0,29.623,0,0,0,59.7,59
2016-05-13 01:45:00,48.8,44.9092244456335,48.8,87,45.1045227970356,9,20,0,0,0,29.624,0,0,0,59.7,59
2016-05-13 01:50:00,48.8,44.9092244456335,48.8,87,45.1045227970356,9,20,337.5,0,0,29.623,0,0,0,60,59
2016-05-13 01:55:00,48.8,45.3042562953752,48.8,87,45.1045227970356,8,18,22.5,0,0,29.619,0,0,0,59.9,59
2016-05-13 02:00:00,48.7,45.6226792284681,48.7,87,45.0061778648932,7,20,0,0,0,29.622,0,0.001,0,59.9,59
2016-05-13 02:05:00,48.7,46.6910665596986,48.7,88,45.3070018447885,5,14,315,0,0,29.62,0,0,0,59.9,59
2016-05-13 02:10:00,48.8,45.7431941364924,48.8,88,45.4054810485674,7,14,315,0,0,29.617,0,0,0,59.9,59
2016-05-13 02:15:00,48.7,44.7863148436085,48.7,87,45.0061778648932,9,20,0,0,0,29.618,0,0,0,59.7,59
2016-05-13 02:20:00,48.6,45.5021643204439,48.6,88,45.2085223028683,7,16,315,0,0,29.619,0,0,0,59.6,59
2016-05-13 02:25:00,48.6,45.5021643204439,48.6,88,45.2085223028683,7,21,0,0,0,29.622,0,0,0,59.6,59
2016-05-13 02:30:00,48.7,46.1192921344317,48.7,87,45.0061778648932,6,15,315,0,0,29.619,0,0,0,59.7,59
2016-05-13 02:35:00,48.7,46.1192921344317,48.7,88,45.3070018447885,6,12,337.5,0,0,29.617,0,0,0,59.7,59
2016-05-13 02:40:00,48.7,46.6910665596986,48.7,88,45.3070018447885,5,14,315,0,0,29.619,0,0,0,59.7,59
2016-05-13 02:45:00,48.7,46.1192921344317,48.7,88,45.3070018447885,6,19,45,0,0,29.622,0,0,0,59.6,60
2016-05-13 02:50:00,48.6,44.6634052415834,48.6,88,45.2085223028683,9,22,0,0,0,29.628,0,0,0,59.3,60
2016-05-13 02:55:00,48.5,45.3816494124196,48.5,88,45.1100424228052,7,15,22.5,0,0,29.626,0,0,0,59.3,60
2016-05-13 03:00:00,48.5,45.3816494124196,48.5,88,45.1100424228052,7,14,45,0,0,29.629,0,0.001,0,59.1,60
2016-05-13 03:05:00,48.5,44.5404956395583,48.5,88,45.1100424228052,9,20,0,0,0,29.624,0,0,0,59.3,60
2016-05-13 03:10:00,48.4,44.8171551284292,48.4,88,45.0115622045973,8,20,22.5,0,0,29.631,0,0,0,59.3,60
2016-05-13 03:15:00,48.3,45.6429201474242,48.3,88,44.913081648243,6,12,22.5,0,0,29.63,0,0,0,59.3,60
2016-05-13 03:20:00,48.3,45.1406195963712,48.3,88,44.913081648243,7,14,0,0,0,29.632,0,0,0,59.3,59
2016-05-13 03:25:00,48.3,45.6429201474242,48.3,88,44.913081648243,6,14,315,0,0,29.632,0,0,0,59.4,59
2016-05-13 03:30:00,48.3,45.1406195963712,48.3,88,44.913081648243,7,16,22.5,0,0,29.63,0,0,0,59.3,59
2016-05-13 03:35:00,48.3,45.1406195963712,48.3,88,44.913081648243,7,14,0,0,0,29.626,0,0,0,59.4,59
2016-05-13 03:40:00,48.3,44.6953798366928,48.3,88,44.913081648243,8,19,337.5,0,0,29.635,0,0,0,59.4,59
2016-05-13 03:45:00,48.2,44.1717668334831,48.2,88,44.8146007537406,9,24,292.5,0,0,29.635,0,0,0,59.3,60
2016-05-13 03:50:00,48.2,45.0201046883469,48.2,88,44.8146007537406,7,16,0,0,0,29.634,0,0,0,59.3,60
2016-05-13 03:55:00,48.2,46.1037871515735,48.2,88,44.8146007537406,5,14,315,0,0,29.636,0,0,0,59.3,60
2016-05-13 04:00:00,48.1,45.9863312699484,48.1,88,44.7161195210881,5,12,337.5,0,0,29.633,0,0.001,0,59.1,60
2016-05-13 04:05:00,48.1,44.8995897803227,48.1,88,44.7161195210881,7,13,0,0,0,29.635,0,0,0,59.1,60
2016-05-13 04:10:00,48.1,45.4047341539205,48.1,88,44.7161195210881,6,13,337.5,0,0,29.64,0,0,0,59.1,60
2016-05-13 04:15:00,48,43.5579522915395,48,88,44.617637950284,10,18,45,0,0,29.641,0,0,0,59,60
2016-05-13 04:20:00,48,43.925947629433,48,88,44.617637950284,9,16,0,0,0,29.643,0,0,0,58.8,60
2016-05-13 04:25:00,47.9,43.4340097413401,47.9,88,44.5191560413265,10,20,0,0,0,29.649,0,0,0,59,59
2016-05-13 04:30:00,47.9,44.2082786697469,47.9,88,44.5191560413265,8,16,337.5,0,0,29.649,0,0,0,59,59
2016-05-13 04:35:00,48,44.3300539614833,48,88,44.617637950284,8,14,0,0,0,29.646,0,0,0,58.8,59
2016-05-13 04:40:00,48,45.2856411571686,48,88,44.617637950284,6,12,0,0,0,29.644,4,0,0,58.7,59
2016-05-13 04:45:00,48,44.7790748722984,48,88,44.617637950284,7,15,0,0,0,29.645,5,0,0,58.8,59
2016-05-13 04:50:00,48,44.7790748722984,48,88,44.617637950284,7,15,0,0,0,29.646,7,0,0,58.8,59
2016-05-13 04:55:00,47.9,44.2082786697469,47.9,87,44.2194051732951,8,16,22.5,0,0,29.646,9,0,0,58.7,59
2016-05-13 05:00:00,47.9,44.2082786697469,47.9,87,44.2194051732951,8,15,0,0,0,29.647,12,0.001,0,58.7,58
2016-05-13 05:05:00,47.8,43.6801284253829,47.8,87,44.1210569325071,9,21,0,0,0,29.648,13,0,0,58.7,59
2016-05-13 05:10:00,47.8,44.5380450562499,47.8,87,44.1210569325071,7,15,45,0,0,29.649,15,0,0,58.8,58
2016-05-13 05:15:00,47.8,44.5380450562499,47.8,87,44.1210569325071,7,19,337.5,0,0,29.651,20,0,0,58.7,58
2016-05-13 05:20:00,47.7,43.1861246409414,47.7,86,43.7201774546675,10,20,0,0,0,29.653,23,0,0,58.7,58
2016-05-13 05:25:00,47.7,44.4175301482257,47.7,86,43.7201774546675,7,13,315,0,0,29.652,22,0,0,58.7,58
2016-05-13 05:30:00,47.8,44.0865033780104,47.8,86,43.8183908153124,8,15,0,0,0,29.652,28,0,0,58.5,58
2016-05-13 05:35:00,47.7,43.9647280862739,47.7,86,43.7201774546675,8,18,337.5,0,0,29.655,26,0,0,58.4,58
2016-05-13 05:40:00,47.7,43.5572188233578,47.7,85,43.4145313004034,9,23,0,0,0,29.657,28,0,0,58.5,57
2016-05-13 05:45:00,47.8,45.0474551636649,47.8,89,44.7173065262703,6,11,0,0,0,29.659,29,0,0,58.5,57
2016-05-13 05:50:00,47.8,44.5380450562499,47.8,85,43.5126081150885,7,16,337.5,0,0,29.658,28,0,0,58.4,57
2016-05-13 05:55:00,47.8,44.5380450562499,47.8,85,43.5126081150885,7,16,337.5,0,0,29.657,37,0,0,58.4,57
2016-05-13 06:00:00,47.7,43.1861246409414,47.7,84,43.1057002587929,10,21,315,0,0,29.657,46,0.001,0,58.2,57
2016-05-13 06:05:00,47.8,43.6801284253829,47.8,84,43.2036392011823,9,16,315,0,0,29.66,58,0,0,58.4,57
2016-05-13 06:10:00,47.8,44.0865033780104,47.8,84,43.2036392011823,8,15,0,0,0,29.66,74,0,0,58.4,57
2016-05-13 06:15:00,47.8,44.0865033780104,47.8,84,43.2036392011823,8,21,337.5,0,0,29.66,83,0,0,58.5,56
2016-05-13 06:20:00,47.9,43.8030380274079,47.9,83,42.9892112593439,9,21,0,0,0,29.664,118,0,0.3,58.4,56
2016-05-13 06:25:00,48,44.3300539614833,48,83,43.087009998435,8,19,0,0,0,29.667,112,0,0.1,58.5,55
2016-05-13 06:30:00,48.1,44.8995897803227,48.1,82,42.8688262373626,7,21,337.5,0,0,29.668,112,0,0.3,58.5,55
2016-05-13 06:35:00,48.2,45.5238271506724,48.2,82,42.9664832651629,6,15,0,0,0,29.668,85,0,0,58.7,55
2016-05-13 06:40:00,48.3,46.9064741331251,48.3,82,43.0641397745899,4,8,45,0,0,29.668,71,0,0,58.8,55
2016-05-13 06:45:00,48.4,46.3386989148235,48.4,82,43.1617957656477,5,9,45,0,0,29.669,79,0,0,58.8,55
2016-05-13 06:50:00,48.5,45.881106140928,48.5,82,43.2594512383405,6,16,22.5,0,0,29.671,81,0,0,58.7,55
2016-05-13 06:55:00,48.3,44.2946764355082,48.3,81,42.7444591427399,9,19,337.5,0,0,29.672,94,0,0.5,58.7,54
2016-05-13 07:00:00,48.2,44.1717668334831,48.2,80,42.3239105589091,9,20,0,0,0,29.673,141,0.003,0.7,59,53
2016-05-13 07:05:00,48.6,45.5021643204439,48.6,79,42.3861960845236,7,14,0,0,0,29.668,365,0,1.1,59.3,53
2016-05-13 07:10:00,49.2,45.4008628537338,49.2,77,42.3022643041831,9,18,0,0,0,29.67,311,0,1.1,59.6,51
2016-05-13 07:15:00,49.6,46.7073134006863,49.6,76,42.34997725918,7,15,0,0,0,29.673,385,0,1.3,59.7,52
2016-05-13 07:20:00,49.8,45.7889181951285,49.8,75,42.199270000972,10,18,22.5,0,0,29.674,381,0,1.4,59.6,50
2016-05-13 07:25:00,50,50,50,74,42.0438789789562,7,18,337.5,0,0,29.675,416,0,1.5,59.7,51
2016-05-13 07:30:00,50.3,50.3,50.3,73,41.9799946088972,6,13,292.5,0,0,29.674,355,0,1.4,60,50
2016-05-13 07:35:00,51,51,51,74,43.0084699220353,4,10,22.5,0,0,29.679,355,0,1.4,60.3,50
2016-05-13 07:40:00,50.7,50.7,50.7,72,42.0070180289717,6,12,0,0,0,29.679,225,0,1.3,60.5,49
2016-05-13 07:45:00,50.2,50.2,50.2,72,41.5262846262546,9,18,22.5,0,0,29.683,278,0,1.5,60.3,48
2016-05-13 07:50:00,50.3,50.3,50.3,72,41.6224329833267,8,19,0,0,0,29.685,252,0,1.6,60.3,49
2016-05-13 07:55:00,50.6,50.6,50.6,72,41.910873024935,7,15,22.5,0,0,29.683,370,0,1.7,60.5,49
2016-05-13 08:00:00,50.4,50.4,50.4,72,41.7185805021235,8,16,0,0,0,29.686,227,0.007,1.5,60.7,48
2016-05-13 08:05:00,50.2,50.2,50.2,72,41.5262846262546,7,15,0,0,0,29.689,222,0,1.6,61.1,48
2016-05-13 08:10:00,50.1,50.1,50.1,71,41.0684866093712,10,20,22.5,0,0,29.69,237,0,1.9,61.1,47
2016-05-13 08:15:00,50.1,50.1,50.1,71,41.0684866093712,11,21,22.5,0,0,29.689,529,0,2.3,61,47
2016-05-13 08:20:00,50.5,50.5,50.5,71,41.4524422127708,8,16,22.5,0,0,29.691,273,0,2.1,60.8,48
2016-05-13 08:25:00,50.7,50.7,50.7,70,41.2772809354193,8,16,22.5,0,0,29.687,285,0,2,61,47
2016-05-13 08:30:00,50.5,50.5,50.5,70,41.0856303479975,9,15,0,0,0,29.688,258,0,2,60.8,47
2016-05-13 08:35:00,50.5,50.5,50.5,70,41.0856303479975,8,18,45,0,0,29.684,242,0,2,61,47
2016-05-13 08:40:00,50.5,50.5,50.5,70,41.0856303479975,9,15,45,0,0,29.689,283,0,2.1,61.1,47
2016-05-13 08:45:00,50.8,50.8,50.8,71,41.7403997616511,7,19,22.5,0,0,29.689,273,0,2.2,61.1,47
2016-05-13 08:50:00,51.3,51.3,51.3,70,41.852210964384,10,19,22.5,0,0,29.689,408,0,2.7,61,47
2016-05-13 08:55:00,51.7,51.7,51.7,69,41.8620610049668,8,15,22.5,0,0,29.684,508,0,3.1,61.3,47
2016-05-13 09:00:00,52.3,52.3,52.3,68,42.0567444172765,8,18,0,0,0,29.687,753,0.009,3.4,61.4,46
2016-05-13 09:05:00,52,52,52,67,41.386639282677,11,20,22.5,0,0,29.687,282,0,2.8,61.3,46
2016-05-13 09:10:00,51.7,51.7,51.7,68,41.4838409377568,8,14,45,0,0,29.688,304,0,3,61.3,47
2016-05-13 09:15:00,52.5,52.5,52.5,68,42.2477044523456,7,19,0,0,0,29.688,669,0,3.3,61.6,47
2016-05-13 09:20:00,52.6,52.6,52.6,68,42.3431830090527,7,12,45,0,0,29.688,364,0,3.2,61.9,47
2016-05-13 09:25:00,53.1,53.1,53.1,67,42.4350605365293,7,14,22.5,0,0,29.691,271,0,2.6,62.1,46
2016-05-13 09:30:00,52.7,52.7,52.7,67,42.0538305648291,7,15,0,0,0,29.694,311,0,2.6,62.2,46
2016-05-13 09:35:00,52.6,52.6,52.6,68,42.3431830090527,5,11,337.5,0,0,29.699,292,0,2.5,62.4,46
2016-05-13 09:40:00,52.7,52.7,52.7,68,42.4386605918947,6,13,315,0,0,29.699,270,0,2.4,62.9,46
2016-05-13 09:45:00,52.1,52.1,52.1,70,42.6187336291358,10,18,315,0,0,29.697,277,0,2.2,63,46
2016-05-13 09:50:00,51.9,51.9,51.9,71,42.7961769861228,7,13,45,0,0,29.701,216,0,1.8,63,46
2016-05-13 09:55:00,51.7,51.7,51.7,71,42.6042253356979,5,12,45,0,0,29.7,258,0,2,63,46
2016-05-13 10:00:00,51.7,51.7,51.7,72,42.9684219684153,7,15,45,0,0,29.706,360,0.008,2.4,63.2,46
2016-05-13 10:05:00,52.1,52.1,52.1,72,43.3529600761667,6,18,0,0,0,29.7,293,0,1.9,63.5,47
2016-05-13 10:10:00,52.3,52.3,52.3,72,43.5452241015304,6,13,0,0,0,29.706,227,0,1.5,63.8,46
2016-05-13 10:15:00,52.3,52.3,52.3,72,43.5452241015304,5,10,0,0,0,29.705,206,0,1.6,63.8,46
2016-05-13 10:20:00,51.9,51.9,51.9,72,43.1606926984909,9,16,0,0,0,29.709,226,0,1.6,63.6,46
2016-05-13 10:25:00,51.9,51.9,51.9,73,43.5207742697455,7,18,337.5,0,0,29.709,281,0,1.8,63.8,47
2016-05-13 10:30:00,51.8,51.8,51.8,73,43.4244815780225,9,15,0,0,0,29.71,335,0,2.3,63.6,47
2016-05-13 10:35:00,51.7,51.7,51.7,72,42.9684219684153,9,18,0,0,0,29.71,373,0,2.8,63.8,46
2016-05-13 10:40:00,52.2,52.2,52.2,71,43.084097924731,7,14,0,0,0,29.713,389,0,2.9,64.1,46
2016-05-13 10:45:00,52.6,52.6,52.6,71,43.4679803075865,7,15,337.5,0,0,29.715,389,0,2.8,64.5,45
2016-05-13 10:50:00,52.4,52.4,52.4,72,43.6413548571226,6,18,315,0,0,29.716,299,0,2.2,64.6,46
2016-05-13 10:55:00,51.9,51.9,51.9,73,43.5207742697455,10,18,0,0,0,29.718,250,0,1.8,64.5,46
2016-05-13 11:00:00,51.5,51.5,51.5,75,43.8416706445027,5,12,22.5,0,0,29.716,173,0.007,1.3,63.8,47
2016-05-13 11:05:00,51.2,51.2,51.2,75,43.5518507644161,8,14,45,0,0,29.723,180,0,1.4,63.5,47
2016-05-13 11:10:00,51,51,51,76,43.7047077928892,7,15,0,0,0,29.723,175,0,1.3,63.5,48
2016-05-13 11:15:00,50.8,50.8,50.8,77,43.8529672180374,6,13,22.5,0,0,29.72,197,0,1.5,63.3,48
2016-05-13 11:20:00,51,51,51,76,43.7047077928892,5,13,315,0,0,29.723,214,0,1.7,63.5,48
2016-05-13 11:25:00,50.8,50.8,50.8,76,43.5111833442517,8,16,337.5,0,0,29.722,172,0,1.4,63.3,48
2016-05-13 11:30:00,50.8,50.8,50.8,76,43.5111833442517,8,16,0,0,0,29.722,105,0,0.9,63.3,48
2016-05-13 11:35:00,50.6,50.6,50.6,76,43.3176560674678,7,14,315,0,0,29.723,113,0,0.9,63.3,48
2016-05-13 11:40:00,50.5,50.5,50.5,76,43.2208913685014,8,14,0,0,0,29.725,140,0,1.2,63.2,48
2016-05-13 11:45:00,50.4,50.4,50.4,76,43.1241259624752,9,18,0,0,0,29.729,163,0,1.5,63.3,48
2016-05-13 11:50:00,50.4,50.4,50.4,77,43.465307689056,7,13,22.5,0,0,29.723,169,0,1.3,63.3,48
2016-05-13 11:55:00,50.4,50.4,50.4,77,43.465307689056,7,16,315,0,0,29.726,153,0,1.2,63.3,48
2016-05-13 12:00:00,50.4,50.4,50.4,77,43.465307689056,8,15,337.5,0,0,29.728,155,0.004,1.2,63.3,48
2016-05-13 12:05:00,50.3,50.3,50.3,77,43.3683911194292,7,14,315,0,0,29.729,141,0,1.1,63.5,48
2016-05-13 12:10:00,50.2,50.2,50.2,77,43.2714738748358,8,14,337.5,0,0,29.726,131,0,1,63.2,48
2016-05-13 12:15:00,50.1,50.1,50.1,78,43.5114092475674,6,11,0,0,0,29.726,158,0,1.2,63,48
2016-05-13 12:20:00,50.1,50.1,50.1,78,43.5114092475674,5,12,337.5,0,0,29.727,169,0,1.3,63.2,48
2016-05-13 12:25:00,50.2,50.2,50.2,78,43.608475962956,6,13,0,0,0,29.729,163,0,1.3,63.2,48
2016-05-13 12:30:00,50.2,50.2,50.2,77,43.2714738748358,7,14,0,0,0,29.73,167,0,1.3,63.2,48
2016-05-13 12:35:00,50.1,50.1,50.1,77,43.1745559552686,6,13,337.5,0,0,29.73,172,0,1.4,63.2,48
2016-05-13 12:40:00,50.1,50.1,50.1,77,43.1745559552686,8,16,315,0,0,29.73,173,0,1.3,63.2,48
2016-05-13 12:45:00,50,50,50,76,42.7370572676167,8,16,22.5,0,0,29.732,196,0,1.5,63.2,47
2016-05-13 12:50:00,50,50,50,76,42.7370572676167,6,12,22.5,0,0,29.73,212,0,1.7,63.3,47
2016-05-13 12:55:00,49.9,46.6437845044764,49.9,76,42.6402883261748,8,14,22.5,0,0,29.735,185,0,1.4,63.2,47
2016-05-13 13:00:00,49.7,47.3102221019505,49.7,76,42.4467483219643,6,14,337.5,0,0,29.736,182,0.004,1.3,63,47
2016-05-13 13:05:00,49.6,46.7073134006863,49.6,75,42.0060323462139,7,15,0,0,0,29.737,194,0,1.4,63,46
2016-05-13 13:10:00,49.6,46.7073134006863,49.6,75,42.0060323462139,7,13,22.5,0,0,29.738,181,0,1.3,62.9,46
2016-05-13 13:15:00,49.8,48.6392160976082,49.8,75,42.199270000972,4,12,337.5,0,0,29.739,181,0,1.3,62.9,46
2016-05-13 13:20:00,49.9,47.0688581247591,49.9,74,41.9474156380424,7,14,22.5,0,0,29.74,185,0,1.4,63,46
2016-05-13 13:25:00,49.9,46.6437845044764,49.9,74,41.9474156380424,8,13,45,0,0,29.745,150,0,1.1,62.9,46
2016-05-13 13:30:00,49.8,46.9483432167348,49.8,74,41.8509515249813,7,14,45,0,0,29.743,124,0,0.9,62.4,46
2016-05-13 13:35:00,49.6,46.278458629267,49.6,74,41.6580209823803,8,15,22.5,0,0,29.745,143,0,1,62.1,46
2016-05-13 13:40:00,49.6,47.1911291051986,49.6,74,41.6580209823803,6,12,22.5,0,0,29.749,143,0,1,62.1,46
2016-05-13 13:45:00,49.6,47.1911291051986,49.6,74,41.6580209823803,6,13,0,0,0,29.75,150,0,1,62.2,47
2016-05-13 13:50:00,49.5,47.6307136126988,49.5,74,41.5615545528218,5,11,0,0,0,29.75,174,0,1.1,62.2,46
2016-05-13 13:55:00,49.6,47.7481694943238,49.6,74,41.6580209823803,5,10,45,0,0,29.746,243,0,1.7,62.4,46
2016-05-13 14:00:00,49.6,47.1911291051986,49.6,73,41.3058387033256,6,12,45,0,0,29.744,208,0.004,1.4,62.5,45
2016-05-13 14:05:00,49.7,47.8656253759489,49.7,73,41.4021491051119,5,14,22.5,0,0,29.744,191,0,1.3,62.5,45
2016-05-13 14:10:00,49.8,47.4293150987023,49.8,72,41.1416828149935,6,12,0,0,0,29.749,193,0,1.3,62.9,45
2016-05-13 14:15:00,50.1,50.1,50.1,72,41.4301354308961,6,14,337.5,0,0,29.748,211,0,1.4,63,45
2016-05-13 14:20:00,50.3,50.3,50.3,72,41.6224329833267,7,12,0,0,0,29.746,199,0,1.3,63.3,44
2016-05-13 14:25:00,50.3,50.3,50.3,72,41.6224329833267,9,21,0,0,0,29.752,190,0,1.1,63.3,44
2016-05-13 14:30:00,50.2,50.2,50.2,72,41.5262846262546,6,16,0,0,0,29.756,195,0,1.2,63.2,44
2016-05-13 14:35:00,50.1,50.1,50.1,72,41.4301354308961,7,15,337.5,0,0,29.75,209,0,1.4,63.2,45
2016-05-13 14:40:00,50,50,50,72,41.3339853972404,8,19,337.5,0,0,29.751,193,0,1.2,63.3,45
2016-05-13 14:45:00,49.9,47.0688581247591,49.9,73,41.5947674933681,7,14,0,0,0,29.758,136,0,0.7,63.2,44
2016-05-13 14:50:00,49.8,46.9483432167348,49.8,73,41.4984587017894,7,14,315,0,0,29.755,100,0,0.3,62.7,45
2016-05-13 14:55:00,49.6,46.278458629267,49.6,73,41.3058387033256,8,13,0,0,0,29.76,90,0,0,62.4,46
2016-05-13 15:00:00,49.1,45.6695821705846,49.1,73,40.8242746174073,8,16,0,0,0,29.76,110,0.004,0.3,61.9,46
2016-05-13 15:05:00,48.8,45.7431941364924,48.8,74,40.8862679242321,7,14,22.5,0,0,29.763,114,0,0.5,61.8,46
2016-05-13 15:10:00,48.7,47.3685386569873,48.7,74,40.7897953169394,4,14,0,0,0,29.761,115,0,0.5,61.8,46
2016-05-13 15:15:00,48.6,46.0001991376799,48.6,74,40.6933219373881,6,16,22.5,0,0,29.762,117,0,0.4,61.8,46
2016-05-13 15:20:00,48.6,46.0001991376799,48.6,74,40.6933219373881,6,12,0,0,0,29.765,128,0,0.6,61.8,46
2016-05-13 15:25:00,48.5,45.881106140928,48.5,74,40.5968477855691,6,13,0,0,0,29.762,147,0,0.7,61.8,45
2016-05-13 15:30:00,48.6,46.5736106780736,48.6,73,40.3426904022529,5,12,337.5,0,0,29.76,157,0,0.8,61.9,45
2016-05-13 15:35:00,48.7,46.6910665596986,48.7,73,40.4390088556833,5,12,22.5,0,0,29.761,150,0,0.8,61.8,45
2016-05-13 15:40:00,48.8,47.4840547879528,48.8,73,40.5353265039038,4,9,0,0,0,29.762,124,0,0.4,61.9,45
2016-05-13 15:45:00,48.9,46.3574781279355,48.9,72,40.2762796962735,6,12,45,0,0,29.764,100,0,0.3,61.8,44
2016-05-13 15:50:00,49,45.9842239525409,49,71,40.0125367724547,7,13,22.5,0,0,29.765,112,0,0,61.4,44
2016-05-13 15:55:00,48.9,46.3574781279355,48.9,71,39.916536101259,6,12,45,0,0,29.762,108,0,0,61.6,44
2016-05-13 16:00:00,49,45.5478068788481,49,71,40.0125367724547,8,14,337.5,0,0,29.763,115,0.003,0,61.6,44
2016-05-13 16:05:00,49,46.4765711246873,49,71,40.0125367724547,6,12,337.5,0,0,29.762,103,0,0,61.6,44
2016-05-13 16:10:00,49.1,47.8306031808494,49.1,71,40.108536571698,4,9,315,0,0,29.766,75,0,0,61.6,45
2016-05-13 16:15:00,49,45.9842239525409,49,72,40.3724389519226,7,12,45,0,0,29.769,59,0,0,61.6,44
2016-05-13 16:20:00,48.7,46.1192921344317,48.7,72,40.0839586696779,6,15,45,0,0,29.771,60,0,0,61.1,45
2016-05-13 16:25:00,48.4,45.2611345043954,48.4,72,39.7954708413764,7,15,315,0,0,29.77,54,0,0,61,44
2016-05-13 16:30:00,48.2,45.5238271506724,48.2,71,39.2445069872286,6,14,337.5,0,0,29.771,71,0,0,61,44
2016-05-13 16:35:00,48.1,44.8995897803227,48.1,71,39.1484993399873,7,12,0,0,0,29.772,90,0,0,60.8,44
2016-05-13 16:40:00,48.1,44.8995897803227,48.1,71,39.1484993399873,7,14,337.5,0,0,29.771,89,0,0,60.7,44
2016-05-13 16:45:00,48,44.7790748722984,48,71,39.0524908206868,7,14,22.5,0,0,29.772,67,0,0,60.3,44
2016-05-13 16:50:00,47.9,45.1665481604167,47.9,71,38.9564814293152,6,12,337.5,0,0,29.772,62,0,0,60,44
2016-05-13 16:55:00,47.9,45.7514195066984,47.9,71,38.9564814293152,5,12,0,0,0,29.771,67,0,0,59.9,45
2016-05-13 17:00:00,48,48,48,71,39.0524908206868,2,10,315,0,0,29.768,78,0.002,0,60,45
2016-05-13 17:05:00,48,45.8688753883234,48,71,39.0524908206868,5,10,22.5,0,0,29.77,51,0,0,59.9,45
2016-05-13 17:10:00,48.1,45.9863312699484,48.1,71,39.1484993399873,5,14,337.5,0,0,29.775,41,0,0,59.7,45
2016-05-13 17:15:00,47.9,45.7514195066984,47.9,71,38.9564814293152,5,12,315,0,0,29.771,57,0,0,59.4,45
2016-05-13 17:20:00,47.7,44.928362166913,47.7,71,38.7644600303113,6,15,45,0,0,29.772,52,0,0,59.4,45
2016-05-13 17:25:00,47.6,46.0978612163663,47.6,72,39.0261330718205,4,12,67.5,0,0,29.771,40,0,0,59.6,46
2016-05-13 17:30:00,47.5,45.2815959801983,47.5,73,39.2831342677821,5,11,0,0,0,29.774,54,0,0,59.7,46
2016-05-13 17:35:00,47.2,44.3328971831536,47.2,74,39.3426135313338,6,16,22.5,0,0,29.78,93,0,0,59.4,47
2016-05-13 17:40:00,47,47,47,75,39.4936736265367,3,11,337.5,0,0,29.779,137,0,0,59.7,48
2016-05-13 17:45:00,46.8,45.1737321686419,46.8,76,39.640100378267,4,9,45,0,0,29.777,157,0,0,59.7,48
2016-05-13 17:50:00,46.6,46.6,46.6,77,39.7820034821784,3,8,22.5,0,0,29.781,102,0,0,59.4,48
2016-05-13 17:55:00,46.5,46.5,46.5,77,39.6850612588603,3,9,22.5,0,0,29.779,69,0,0,59.3,49
2016-05-13 18:00:00,46.4,46.4,46.4,78,39.9194886000014,3,6,0,0,0,29.777,55,0.002,0,59.1,49
2016-05-13 18:05:00,46.4,46.4,46.4,79,40.247132560184,3,7,0,0,0,29.777,41,0,0,58.8,50
2016-05-13 18:10:00,46.4,43.9895812823229,46.4,79,40.247132560184,5,9,22.5,0,0,29.779,37,0,0,58.8,49
2016-05-13 18:15:00,46.4,44.7116676447798,46.4,79,40.247132560184,4,9,22.5,0,0,29.782,37,0,0,59,50
2016-05-13 18:20:00,46.4,44.7116676447798,46.4,79,40.247132560184,4,9,337.5,0,0,29.785,45,0,0,59,50
2016-05-13 18:25:00,46.4,46.4,46.4,80,40.5711388882662,2,9,45,0,0,29.787,33,0,0,59,50
2016-05-13 18:30:00,46.4,46.4,46.4,79,40.247132560184,3,9,0,0,0,29.788,16,0,0,58.8,49
2016-05-13 18:35:00,46.4,43.9895812823229,46.4,79,40.247132560184,5,12,45,0,0,29.795,13,0,0,58.7,49
2016-05-13 18:40:00,46.3,44.5961515138142,46.3,78,39.8223974409694,4,12,0,0,0,29.794,18,0,0,58.5,49
2016-05-13 18:45:00,46.2,46.2,46.2,78,39.7253056385589,3,6,22.5,0,0,29.795,18,0,0,58.5,49
2016-05-13 18:50:00,46.2,46.2,46.2,78,39.7253056385589,2,8,337.5,0,0,29.794,15,0,0,58.5,49
2016-05-13 18:55:00,46.2,46.2,46.2,78,39.7253056385589,3,6,45,0,0,29.792,14,0,0,58.4,49
2016-05-13 19:00:00,46.2,46.2,46.2,78,39.7253056385589,2,5,45,0,0,29.794,19,0.001,0,58.2,49
2016-05-13 19:05:00,46.1,46.1,46.1,78,39.6282131927636,3,7,0,0,0,29.793,17,0,0,58.1,49
2016-05-13 19:10:00,46.1,46.1,46.1,78,39.6282131927636,3,7,45,0,0,29.796,16,0,0,57.9,49
2016-05-13 19:15:00,46,46,46,78,39.531120103577,2,7,0,0,0,29.798,20,0,0,57.9,49
2016-05-13 19:20:00,46,46,46,78,39.531120103577,2,7,337.5,0,0,29.8,17,0,0,57.9,49
2016-05-13 19:25:00,46,46,46,78,39.531120103577,1,4,337.5,0,0,29.8,10,0,0,58.1,49
2016-05-13 19:30:00,46.1,46.1,46.1,78,39.6282131927636,0,2,0,0,0,29.8,5,0,0,58.1,50
2016-05-13 19:35:00,46.1,44.3651192518831,46.1,78,39.6282131927636,4,8,337.5,0,0,29.801,0,0,0,58.1,50
2016-05-13 19:40:00,46.1,43.022874218883,46.1,78,39.6282131927636,6,11,0,0,0,29.802,0,0,0,57.9,50
2016-05-13 19:45:00,46,46,46,78,39.531120103577,3,8,337.5,0,0,29.802,0,0,0,58.1,50
2016-05-13 19:50:00,45.9,43.4023018741978,45.9,78,39.4340263709928,5,9,337.5,0,0,29.805,0,0,0,57.9,49
2016-05-13 19:55:00,45.9,43.4023018741978,45.9,78,39.4340263709928,5,12,22.5,0,0,29.807,0,0,0,58.1,49
2016-05-13 20:00:00,45.8,44.0185708589865,45.8,77,39.0064467886678,4,9,45,0,0,29.815,0,0.001,0,57.7,49
2016-05-13 20:05:00,45.8,45.8,45.8,77,39.0064467886678,2,8,292.5,0,0,29.814,0,0,0,57.6,49
2016-05-13 20:10:00,45.8,45.8,45.8,77,39.0064467886678,2,5,0,0,0,29.819,0,0,0,57.6,49
2016-05-13 20:15:00,45.8,44.0185708589865,45.8,77,39.0064467886678,4,10,337.5,0,0,29.82,0,0,0,57.6,49
2016-05-13 20:20:00,45.7,43.1673901109478,45.7,77,38.9094991632748,5,10,22.5,0,0,29.823,0,0,0,57.6,49
2016-05-13 20:25:00,45.6,43.0499342293227,45.6,77,38.8125508625906,5,11,315,0,0,29.82,0,0,0,57.6,49